Home > Weather > Tirana > Past weeks

Flag for Albania Weather for the Past 2 Weeks in Tirana, Albania

Now
39 °F

Passing clouds.


Feels Like: 34 °F
Forecast: 31 / 58 °F
Wind: 7 mph from North

Location: Tirana Airport

Current Time: Feb 6, 2016 at 4:18:09 AM

Latest Report: Feb 6, 2016 at 3:20 AM


Visibility: N/A

Pressure: 30.36 "Hg

Humidity: 52%

Dew point: 23 °F

Location of TiranaLocation

Historic Weather in Tirana — Graph

°F

Tirana Temperature Yesterday

Maximum temperature yesterday: 52 °F (at 12:50 PM)
Minimum temperature yesterday: 39 °F (at 1:50 AM)
Average temperature yesterday: 45 °F

High & Low Weather Summary for the Past Weeks

 TemperatureHumidityPressure
High68 °F (Feb 2, 1:20 PM)100% (Jan 29, 1:50 AM)30.48 "Hg (Jan 29, 1:50 AM)
Low19 °F (Jan 23, 7:20 AM)17% (Jan 23, 12:50 PM)29.92 "Hg (Feb 4, 4:20 AM)
Average46 °F68%30.32 "Hg
* Reported Jan 22 2:20 AM — Feb 6 2:50 AM, Tirana, Weather by CustomWeather, © 2016

Note: Actual official high and low records may vary slightly from our data, if they occured in-between our weather recording intervals... More about our weather records

Advertising

Tirana Weather History for the Previous 24 Hours

 ConditionsComfort  
Time TempWeatherWind HumidityBarometerVisibility
2:50 AM
Sat, Feb 6
39 °FClear.7 mph48%30.36 "Hg10 mi
2:20 AM41 °FClear.6 mph42%30.36 "Hg10 mi
1:20 AM41 °FClear.10 mph42%30.33 "Hg10 mi
12:50 AM41 °FClear.9 mph42%30.33 "Hg10 mi
12:20 AM43 °FClear.8 mph36%30.33 "Hg10 mi
11:50 PM
Fri, Feb 5
43 °FClear.10 mph39%30.33 "Hg10 mi
11:20 PM45 °FPassing clouds.9 mph37%30.33 "HgN/A
10:50 PM45 °FClear.12 mph37%30.33 "Hg10 mi
10:20 PM46 °FClear.16 mph34%30.33 "Hg10 mi
9:50 PM43 °FClear.15 mph46%30.30 "Hg10 mi
9:20 PM45 °FClear.12 mph39%30.30 "Hg10 mi
8:50 PM43 °FPassing clouds.10 mph46%30.27 "HgN/A
8:20 PM43 °FClear.12 mph42%30.27 "Hg10 mi
7:50 PM46 °FClear.12 mph34%30.27 "Hg10 mi
7:20 PM46 °FClear.10 mph34%30.24 "Hg10 mi
6:50 PM45 °FClear.12 mph37%30.24 "Hg10 mi
6:20 PM46 °FClear.14 mph34%30.24 "Hg10 mi
5:50 PM48 °FClear.16 mph32%30.21 "Hg10 mi
5:20 PM46 °FClear.13 mph32%30.18 "Hg10 mi
4:50 PM48 °FScattered clouds.15 mph27%30.18 "HgN/A
4:20 PM50 °FScattered clouds.12 mph30%30.15 "HgN/A
3:50 PM50 °FScattered clouds.16 mph28%30.15 "HgN/A
3:20 PM52 °FScattered clouds.16 mph28%30.15 "HgN/A
2:50 PM52 °FScattered clouds.16 mph26%30.15 "HgN/A
2:20 PM52 °FPassing clouds.17 mph26%30.12 "HgN/A
1:50 PM50 °FPassing clouds.22 mph28%30.12 "HgN/A
1:20 PM50 °FPassing clouds.20 mph25%30.12 "HgN/A
12:50 PM52 °FPassing clouds.21 mph26%30.09 "HgN/A
12:20 PM50 °FPassing clouds.18 mph28%30.09 "HgN/A
11:50 AM50 °FSunny.18 mph28%30.09 "Hg10 mi
11:20 AM50 °FSunny.17 mph28%30.09 "Hg10 mi
10:50 AM50 °FPassing clouds.13 mph30%30.09 "HgN/A
10:20 AM50 °FSunny.13 mph30%30.09 "Hg10 mi
9:50 AM48 °FPassing clouds.15 mph29%30.07 "HgN/A
9:20 AM48 °FPassing clouds.12 mph32%30.07 "HgN/A
8:50 AM46 °FPassing clouds.10 mph34%30.07 "HgN/A
8:20 AM45 °FPassing clouds.10 mph39%30.04 "HgN/A
7:50 AM41 °FSunny.14 mph45%30.04 "Hg10 mi
7:20 AM39 °FSunny.10 mph52%30.01 "Hg10 mi
6:20 AM39 °FPassing clouds.6 mph52%29.98 "HgN/A
5:50 AM41 °FClear.12 mph49%29.98 "Hg10 mi
5:20 AM41 °FClear.10 mph53%29.98 "Hg10 mi
4:50 AM39 °FClear.10 mph56%29.98 "Hg10 mi
4:20 AM39 °FClear.9 mph56%29.95 "Hg10 mi
Weather by CustomWeather, © 2016

See weather overviewHow to use our weather pages